World > North America > United States > Florida > Hosford  

Hosford, FL Hourly Weather Updates

Feedback E-mail the Weather

Quick Clicks

Hosford, FL Weather Maps

°F °C°F °C
Hosford Weather Map
UTC Time: 4/21/2024, 18:36
Your Time:

Hosford, FL Regional Weather

Expires:202404211900;;140984
ASUS42 KTBW 211812
RWRFL 
FLORIDA REGIONAL WEATHER ROUNDUP
NATIONAL WEATHER SERVICE TAMPA BAY RUSKIN FL
200 PM EDT SUN APR 21 2024

NOTE: "FAIR" INDICATES FEW OR NO CLOUDS BELOW 12,000 FEET WITH NO
SIGNIFICANT WEATHER AND/OR OBSTRUCTIONS TO VISIBILITY.


FLZ011-016>038-118-127-128-134-139-239-211900-
NORTH FLORIDA
  
CITY           SKY/WX    TMP DP  RH WIND       PRES   REMARKS
TALLAHASSEE    CLOUDY    79  67  66 W21G30    29.93F                  
LIVE OAK       SUNNY     73  73 100 SW8       29.94F                  
CROSS CITY     PTSUNNY   81  68  65 SW18      29.98F                  
LAKE CITY      CLOUDY    79  64  61 W9        29.94F                  
GAINESVILLE    PTSUNNY   82  66  58 W14       29.98F                  
WILLISTON      PTSUNNY   80  68  65 SW12G17   29.98F                  
PALATKA        MOSUNNY   84  68  58 W10G20    29.96F                  
MAYPORT NAS    PTSUNNY   88  64  44 SW17G24   29.93F                  
JACKSONVILLE   PTSUNNY   85  62  46 SW20G28   29.91F                  
JAX NAS        PTSUNNY   87  63  44 W16G26    29.94F                  
JAX CECIL      NOT AVBL                                               
FERNANDINA BEA PTSUNNY   84  63  48 W17G24    29.92F                  
ST AUGUSTINE   MOSUNNY   84  65  52 SW12G23   29.96F                  

STATION/POSITION SKY/WX   TEMP    WIND        PRES    WAVE   SWELL
                          AIR SEA DIR/SP/G            HT/PER HT/PER
                          (F)     (DEG/KT/KT) (MB)    (FT/S) (FT/S)
SHELL POINT                76     230/  8/ 10 1014.1   56
KEATON BEACH     NOT AVBL
CEDAR KEY        NOT AVBL
FERNANDINA                 82 75  260/ 15/ 22 1013.1F
30.7N   81.3W              75 71                N/A     2/11   2/11
MAYPORT                    79 73  260/ 14/ 18 1014.5
31.4N   80.9W              72 72  210/  8/ 10 1013.1F   2/ 8   2/ 8
ST AUGUSTINE               82 72  250/ 11/ 16 1014.0F

$$

SKY/WX - Weather  TMP - Temperature  DP - Dew Point  RH - Humidity
WIND - Wind Direction/Speed PRES - Barometric Pressure VSB - Visibility
WCI - Wind Chill Index E13G22 Wind - East Wind 13 mph/Gusts of 22 mph

Trending Headlines

Trending Entertainment Headlines

Hosford Radar Loop

Use the map search tool if you want to place a location marker on the radar map...

Hosford Quick Facts

National Two Day Weather Forecast


E-mail the Hosford Weather Forecast

Voice your opinion or tell us about page issues...